DW8673 Jerrabomberra AU current weather conditions

sailwx.info

Wind from 006 at 0 knots gusting 1

Air temperature 11.1° C
Dewpoint -0.1° C

Last reported at 2014-Jul-23 06:43 UTC.
Time now 2014-Jul-23 08:06 UTC

Location: S 35°23' E 149°12'.
View on Google Maps.

See reports from other nearby stations

  
Tides and Currents Weather Stations Pressure Air Temp Water Temp Dewpoint Dewpoint Depression Visibility Wind Speed Wind Dir Waves Ship Positions
date/time (UTC)wind fromknots sea level pressurealtimeterstation pressurevisibilityair tempwater tempwave heightnotes
2014-Jul-23 07:43 158 7.8
2014-Jul-23 07:33 200 8.3
2014-Jul-23 07:03 090 10.0
2014-Jul-23 06:43 006 0 gusting 1 11.1
2014-Jul-23 06:33 337 0 gusting 2 11.7
2014-Jul-23 06:13 343 1 gusting 2 12.2
2014-Jul-23 06:03 341 1 gusting 5 12.8
2014-Jul-23 05:43 340 1 gusting 4 13.3
2014-Jul-23 05:33 338 2 gusting 5 13.9
2014-Jul-23 05:13 342 0 gusting 1 16.1
2014-Jul-23 05:03 013 1 gusting 4 15.6
2014-Jul-23 04:43 310 0 gusting 2 15.6
2014-Jul-23 04:33 326 1 gusting 4 16.7
2014-Jul-23 04:13 311 0 gusting 2 17.2
2014-Jul-23 04:03 325 1 gusting 4 17.8
2014-Jul-23 03:33 292 1 gusting 6 16.7
2014-Jul-23 03:13 200 1 gusting 4 16.7
2014-Jul-23 03:03 317 2 gusting 5 16.7
2014-Jul-23 02:43 262 0 gusting 2 16.1
2014-Jul-23 02:13 317 1 gusting 2 16.1
2014-Jul-23 02:03 292 1 gusting 4 15.6
2014-Jul-23 01:43 259 1 gusting 2 15.0
2014-Jul-23 01:13 359 0 gusting 2 14.4
2014-Jul-23 00:43 219 0 gusting 2 13.3
2014-Jul-23 00:13 243 1 gusting 2 11.7
2014-Jul-22 23:43 274 1 gusting 1 9.4
2014-Jul-22 23:33 284 1 gusting 1 8.9
2014-Jul-22 23:03 288 0 gusting 1 5.6
2014-Jul-22 22:43 343 0 gusting 0 2.8
2014-Jul-22 22:33 297 2.2
2014-Jul-22 22:13 068 1.1
2014-Jul-22 22:03 068 0.6
2014-Jul-22 21:43 068 -0.0
2014-Jul-22 21:33 068 -0.0
2014-Jul-22 21:13 112 -0.0
2014-Jul-22 21:03 112 -0.0
2014-Jul-22 20:43 112 -0.0
2014-Jul-22 20:33 112 -0.0
2014-Jul-22 20:13 135 0.6
2014-Jul-22 20:03 135 0.6
2014-Jul-22 19:43 090 1.1
2014-Jul-22 19:33 112 1.1
2014-Jul-22 19:13 135 0 gusting 1 1.1
2014-Jul-22 19:03 136 1.7
2014-Jul-22 18:43 180 2.2
2014-Jul-22 18:33 225 2.2
2014-Jul-22 18:13 117 2.2
2014-Jul-22 18:03 270 2.2
2014-Jul-22 17:43 068 1.7
2014-Jul-22 17:33 068 1.1
2014-Jul-22 17:13 045 1.1
2014-Jul-22 17:03 1.1
2014-Jul-22 16:43 112 1.1
2014-Jul-22 16:33 112 1.1
2014-Jul-22 16:13 068 0.6
2014-Jul-22 16:03 090 0.6
2014-Jul-22 15:43 090 1.1
2014-Jul-22 15:33 090 1.1
2014-Jul-22 15:13 090 1.1
2014-Jul-22 15:03 090 1.1
2014-Jul-22 14:33 112 1.7
2014-Jul-22 14:13 112 1.7
2014-Jul-22 13:33 180 2.2
2014-Jul-22 13:13 186 2.2
2014-Jul-22 13:03 248 2.2
2014-Jul-22 12:43 180 2.8
2014-Jul-22 12:33 179 3.3
2014-Jul-22 12:13 090 3.3
2014-Jul-22 12:03 120 3.3
2014-Jul-22 11:43 148 3.3
2014-Jul-22 11:03 068 3.3
2014-Jul-22 10:43 158 3.3
2014-Jul-22 10:33 123 3.3
2014-Jul-22 10:13 259 3.9
2014-Jul-22 10:03 135 3.9
2014-Jul-22 09:33 112 4.4
2014-Jul-22 09:13 158 5.0
2014-Jul-22 08:33 205 6.1
2014-Jul-22 08:13 202 6.7
2014-Jul-22 07:43 112 8.3
2014-Jul-22 07:33 236 0 gusting 0 9.4
2014-Jul-22 07:13 315 11.7
2014-Jul-22 07:03 315 13.3
2014-Jul-22 06:43 271 15.0
2014-Jul-22 06:33 302 0 gusting 1 15.0
2014-Jul-22 06:13 325 0 gusting 1 12.8
2014-Jul-22 06:03 008 0 gusting 2 12.8
2014-Jul-22 05:33 154 0 gusting 2 14.4
2014-Jul-22 05:03 253 0 gusting 4 16.7
2014-Jul-22 04:43 354 0 gusting 4 17.2
2014-Jul-22 04:13 340 1 gusting 2 17.2
2014-Jul-22 04:03 355 1 gusting 4 17.2
2014-Jul-22 03:43 254 0 gusting 2 16.7
2014-Jul-22 03:33 280 0 gusting 4 16.7
2014-Jul-22 03:13 171 1 gusting 2 16.7
2014-Jul-22 03:03 343 1 gusting 4 16.1
2014-Jul-22 02:43 306 1 gusting 2 15.6
2014-Jul-22 02:33 283 2 gusting 2 15.0
2014-Jul-22 02:13 252 1 gusting 1 14.4
2014-Jul-22 02:03 196 0 gusting 4 14.4
2014-Jul-22 01:43 309 0 gusting 2 13.3
2014-Jul-22 01:33 264 1 gusting 1 12.2
2014-Jul-22 01:13 257 0 gusting 2 10.6
2014-Jul-22 00:43 277 0 gusting 1 9.4
2014-Jul-22 00:33 259 0 gusting 2 9.4
2014-Jul-22 00:13 122 1 gusting 2 8.3
2014-Jul-22 00:03 099 0 gusting 2 7.8
2014-Jul-21 23:43 063 0 gusting 2 7.8
2014-Jul-21 23:13 100 7.2
2014-Jul-21 23:03 129 1 gusting 5 7.2
2014-Jul-21 22:43 127 0 gusting 1 6.7
2014-Jul-21 22:33 125 0 gusting 4 6.7
2014-Jul-21 22:13 173 0 gusting 2 6.7
2014-Jul-21 22:03 162 0 gusting 4 6.1
2014-Jul-21 21:43 169 5.6
2014-Jul-21 21:33 248 0 gusting 0 5.6
2014-Jul-21 21:13 270 5.6
2014-Jul-21 21:03 248 5.6
2014-Jul-21 20:43 270 5.6
2014-Jul-21 20:33 335 5.6
2014-Jul-21 19:43 248 6.1
2014-Jul-21 19:33 315 6.1
2014-Jul-21 19:13 5.6
2014-Jul-21 18:43 254 5.6
2014-Jul-21 18:33 068 5.6
2014-Jul-21 18:13 270 5.6
2014-Jul-21 18:03 270 5.6
2014-Jul-21 17:43 270 5.6
2014-Jul-21 17:33 270 5.6
2014-Jul-21 17:13 150 0 gusting 1 5.6
2014-Jul-21 17:03 135 5.6
2014-Jul-21 16:33 248 5.0
2014-Jul-21 16:13 068 5.0
2014-Jul-21 16:03 045 4.4
2014-Jul-21 15:43 090 4.4
2014-Jul-21 15:33 071 3.9
2014-Jul-21 15:13 151 3.3
2014-Jul-21 15:03 135 3.3
2014-Jul-21 14:43 225 2.8
2014-Jul-21 14:33 090 2.2
2014-Jul-21 14:13 090 1.7
2014-Jul-21 14:03 114 1.7
2014-Jul-21 13:43 180 2.2
2014-Jul-21 13:33 260 0 gusting 0 2.2
2014-Jul-21 13:13 135 2.2
2014-Jul-21 13:03 135 2.2
2014-Jul-21 12:43 135 2.8
2014-Jul-21 12:33 180 2.8
2014-Jul-21 12:13 202 2.8
2014-Jul-21 12:03 216 0 gusting 0 2.8
2014-Jul-21 11:43 225 2.8
2014-Jul-21 11:33 135 2.8
2014-Jul-21 11:13 135 3.3
2014-Jul-21 10:43 225 3.3
2014-Jul-21 10:33 112 3.9
2014-Jul-21 10:03 135 3.9
2014-Jul-21 09:33 135 3.9
2014-Jul-21 09:13 135 4.4
2014-Jul-21 09:03 135 4.4
2014-Jul-21 08:43 135 5.0
2014-Jul-21 08:33 135 5.6
2014-Jul-21 08:13 135 6.1
2014-Jul-21 08:03 135 6.1